Year,Month,Day,Hour,Minute,Value (Times are PST for temperature in C)
2014,08,27,00,00,20.00
2014,08,27,00,01,20.00
2014,08,27,00,02,20.00
2014,08,27,00,03,20.00
2014,08,27,00,04,20.00
2014,08,27,00,05,20.00
2014,08,27,00,06,19.90
2014,08,27,00,07,19.90
2014,08,27,00,08,19.80
2014,08,27,00,09,19.80
2014,08,27,00,10,19.80
2014,08,27,00,11,19.70
2014,08,27,00,12,19.70
2014,08,27,00,13,19.60
2014,08,27,00,14,19.60
2014,08,27,00,15,19.50
2014,08,27,00,16,19.40
2014,08,27,00,17,19.40
2014,08,27,00,18,19.40
2014,08,27,00,19,19.30
2014,08,27,00,20,19.30
2014,08,27,00,21,19.20
2014,08,27,00,22,19.20
2014,08,27,00,23,19.20
2014,08,27,00,24,19.20
2014,08,27,00,25,19.10
2014,08,27,00,26,19.10
2014,08,27,00,27,19.10
2014,08,27,00,28,19.10
2014,08,27,00,29,19.10
2014,08,27,00,30,19.10
2014,08,27,00,31,19.10
2014,08,27,00,32,19.10
2014,08,27,00,33,19.10
2014,08,27,00,34,19.10
2014,08,27,00,35,19.10
2014,08,27,00,36,19.10
2014,08,27,00,37,19.10
2014,08,27,00,38,19.10
2014,08,27,00,39,19.10
2014,08,27,00,40,19.10
2014,08,27,00,41,19.10
2014,08,27,00,42,19.10
2014,08,27,00,43,19.10
2014,08,27,00,44,19.10
2014,08,27,00,45,19.10
2014,08,27,00,46,19.20
2014,08,27,00,47,19.20
2014,08,27,00,48,19.20
2014,08,27,00,49,19.20
2014,08,27,00,50,19.20
2014,08,27,00,51,19.20
2014,08,27,00,52,19.20
2014,08,27,00,53,19.20
2014,08,27,00,54,19.20
2014,08,27,00,55,19.20
2014,08,27,00,56,19.20
2014,08,27,00,57,19.30
2014,08,27,00,58,19.30
2014,08,27,00,59,19.30
2014,08,27,01,00,19.30
2014,08,27,01,01,19.30
2014,08,27,01,02,19.30
2014,08,27,01,03,19.30
2014,08,27,01,04,19.30
2014,08,27,01,05,19.30
2014,08,27,01,06,19.30
2014,08,27,01,07,19.30
2014,08,27,01,08,19.30
2014,08,27,01,09,19.30
2014,08,27,01,10,19.30
2014,08,27,01,11,19.30
2014,08,27,01,12,19.30
2014,08,27,01,13,19.30
2014,08,27,01,14,19.30
2014,08,27,01,15,19.30
2014,08,27,01,16,19.30
2014,08,27,01,17,19.30
2014,08,27,01,18,19.30
2014,08,27,01,19,19.30
2014,08,27,01,20,19.30
2014,08,27,01,21,19.30
2014,08,27,01,22,19.20
2014,08,27,01,23,19.20
2014,08,27,01,24,19.20
2014,08,27,01,25,19.20
2014,08,27,01,26,19.20
2014,08,27,01,27,19.20
2014,08,27,01,28,19.20
2014,08,27,01,29,19.20
2014,08,27,01,30,19.20
2014,08,27,01,31,19.20
2014,08,27,01,32,19.20
2014,08,27,01,33,19.20
2014,08,27,01,34,19.20
2014,08,27,01,35,19.20
2014,08,27,01,36,19.20
2014,08,27,01,37,19.10
2014,08,27,01,38,19.10
2014,08,27,01,39,19.10
2014,08,27,01,40,19.00
2014,08,27,01,41,19.00
2014,08,27,01,42,18.90
2014,08,27,01,43,18.90
2014,08,27,01,44,18.90
2014,08,27,01,45,18.80
2014,08,27,01,46,18.80
2014,08,27,01,47,18.80
2014,08,27,01,48,18.80
2014,08,27,01,49,18.70
2014,08,27,01,50,18.70
2014,08,27,01,51,18.80
2014,08,27,01,52,18.80
2014,08,27,01,53,18.80
2014,08,27,01,54,18.80
2014,08,27,01,55,18.80
2014,08,27,01,56,18.80
2014,08,27,01,57,18.80
2014,08,27,01,58,18.80
2014,08,27,01,59,18.70
2014,08,27,02,00,18.70
2014,08,27,02,01,18.70
2014,08,27,02,02,18.70
2014,08,27,02,03,18.70
2014,08,27,02,04,18.70
2014,08,27,02,05,18.70
2014,08,27,02,06,18.70
2014,08,27,02,07,18.70
2014,08,27,02,08,18.70
2014,08,27,02,09,18.70
2014,08,27,02,10,18.70
2014,08,27,02,11,18.70
2014,08,27,02,12,18.80
2014,08,27,02,13,18.80
2014,08,27,02,14,18.70
2014,08,27,02,15,18.70
2014,08,27,02,16,18.70
2014,08,27,02,17,18.70
2014,08,27,02,18,18.70
2014,08,27,02,19,18.70
2014,08,27,02,20,18.70
2014,08,27,02,21,18.80
2014,08,27,02,22,18.90
2014,08,27,02,23,19.00
2014,08,27,02,24,19.10
2014,08,27,02,25,19.10
2014,08,27,02,26,19.10
2014,08,27,02,27,19.10
2014,08,27,02,28,19.10
2014,08,27,02,29,19.10
2014,08,27,02,30,19.10
2014,08,27,02,31,19.10
2014,08,27,02,32,19.10
2014,08,27,02,33,19.10
2014,08,27,02,34,19.10
2014,08,27,02,35,19.10
2014,08,27,02,36,19.10
2014,08,27,02,37,19.10
2014,08,27,02,38,19.10
2014,08,27,02,39,19.10
2014,08,27,02,40,19.10
2014,08,27,02,41,19.10
2014,08,27,02,42,19.10
2014,08,27,02,43,19.10
2014,08,27,02,44,19.00
2014,08,27,02,45,19.00
2014,08,27,02,46,18.90
2014,08,27,02,47,18.90
2014,08,27,02,48,18.80
2014,08,27,02,49,18.80
2014,08,27,02,50,18.70
2014,08,27,02,51,18.70
2014,08,27,02,52,18.70
2014,08,27,02,53,18.70
2014,08,27,02,54,18.60
2014,08,27,02,55,18.60
2014,08,27,02,56,18.60
2014,08,27,02,57,18.60
2014,08,27,02,58,18.60
2014,08,27,02,59,18.60
2014,08,27,03,00,18.50
2014,08,27,03,01,18.50
2014,08,27,03,02,18.60
2014,08,27,03,03,18.60
2014,08,27,03,04,18.60
2014,08,27,03,05,18.50
2014,08,27,03,06,18.50
2014,08,27,03,07,18.50
2014,08,27,03,08,18.50
2014,08,27,03,09,18.50
2014,08,27,03,10,18.40
2014,08,27,03,11,18.40
2014,08,27,03,12,18.40
2014,08,27,03,13,18.40
2014,08,27,03,14,18.40
2014,08,27,03,15,18.50
2014,08,27,03,16,18.50
2014,08,27,03,17,18.60
2014,08,27,03,18,18.60
2014,08,27,03,19,18.60
2014,08,27,03,20,18.50
2014,08,27,03,21,18.50
2014,08,27,03,22,18.40
2014,08,27,03,23,18.40
2014,08,27,03,24,18.30
2014,08,27,03,25,18.20
2014,08,27,03,26,18.20
2014,08,27,03,27,18.10
2014,08,27,03,28,18.10
2014,08,27,03,29,18.10
2014,08,27,03,30,18.10
2014,08,27,03,31,18.10
2014,08,27,03,32,18.10
2014,08,27,03,33,18.10
2014,08,27,03,34,18.10
2014,08,27,03,35,18.10
2014,08,27,03,36,18.10
2014,08,27,03,37,18.10
2014,08,27,03,38,18.10
2014,08,27,03,39,18.10
2014,08,27,03,40,18.10
2014,08,27,03,41,18.10
2014,08,27,03,42,18.10
2014,08,27,03,43,18.10
2014,08,27,03,44,18.10
2014,08,27,03,45,18.20
2014,08,27,03,46,18.20
2014,08,27,03,47,18.20
2014,08,27,03,48,18.30
2014,08,27,03,49,18.30
2014,08,27,03,50,18.30
2014,08,27,03,51,18.30
2014,08,27,03,52,18.40
2014,08,27,03,53,18.40
2014,08,27,03,54,18.40
2014,08,27,03,55,18.50
2014,08,27,03,56,18.50
2014,08,27,03,57,18.50
2014,08,27,03,58,18.60
2014,08,27,03,59,18.60
2014,08,27,04,00,18.60
2014,08,27,04,01,18.70
2014,08,27,04,02,18.70
2014,08,27,04,03,18.70
2014,08,27,04,04,18.60
2014,08,27,04,05,18.60
2014,08,27,04,06,18.60
2014,08,27,04,07,18.50
2014,08,27,04,08,18.40
2014,08,27,04,09,18.40
2014,08,27,04,10,18.40
2014,08,27,04,11,18.30
2014,08,27,04,12,18.30
2014,08,27,04,13,18.30
2014,08,27,04,14,18.20
2014,08,27,04,15,18.20
2014,08,27,04,16,18.20
2014,08,27,04,17,18.20
2014,08,27,04,18,18.20
2014,08,27,04,19,18.10
2014,08,27,04,20,18.10
2014,08,27,04,21,18.10
2014,08,27,04,22,18.10
2014,08,27,04,23,18.10
2014,08,27,04,24,18.10
2014,08,27,04,25,18.10
2014,08,27,04,26,18.10
2014,08,27,04,27,18.10
2014,08,27,04,28,18.10
2014,08,27,04,29,18.10
2014,08,27,04,30,18.10
2014,08,27,04,31,18.10
2014,08,27,04,32,18.10
2014,08,27,04,33,18.10
2014,08,27,04,34,18.10
2014,08,27,04,35,18.00
2014,08,27,04,36,18.00
2014,08,27,04,37,18.00
2014,08,27,04,38,18.00
2014,08,27,04,39,18.00
2014,08,27,04,40,18.00
2014,08,27,04,41,18.00
2014,08,27,04,42,18.00
2014,08,27,04,43,18.00
2014,08,27,04,44,18.10
2014,08,27,04,45,18.10
2014,08,27,04,46,18.20
2014,08,27,04,47,18.20
2014,08,27,04,48,18.30
2014,08,27,04,49,18.30
2014,08,27,04,50,18.30
2014,08,27,04,51,18.30
2014,08,27,04,52,18.30
2014,08,27,04,53,18.30
2014,08,27,04,54,18.30
2014,08,27,04,55,18.20
2014,08,27,04,56,18.20
2014,08,27,04,57,18.20
2014,08,27,04,58,18.20
2014,08,27,04,59,18.20
2014,08,27,05,00,18.20
2014,08,27,05,01,18.20
2014,08,27,05,02,18.20
2014,08,27,05,03,18.20
2014,08,27,05,04,18.20
2014,08,27,05,05,18.20
2014,08,27,05,06,18.10
2014,08,27,05,07,18.10
2014,08,27,05,08,18.00
2014,08,27,05,09,17.90
2014,08,27,05,10,17.90
2014,08,27,05,11,17.90
2014,08,27,05,12,17.90
2014,08,27,05,13,17.80
2014,08,27,05,14,17.80
2014,08,27,05,15,17.80
2014,08,27,05,16,17.80
2014,08,27,05,17,17.70
2014,08,27,05,18,17.70
2014,08,27,05,19,17.70
2014,08,27,05,20,17.70
2014,08,27,05,21,17.80
2014,08,27,05,22,17.80
2014,08,27,05,23,17.80
2014,08,27,05,24,17.80
2014,08,27,05,25,17.80
2014,08,27,05,26,17.80
2014,08,27,05,27,17.80
2014,08,27,05,28,17.80
2014,08,27,05,29,17.80
2014,08,27,05,30,17.70
2014,08,27,05,31,17.70
2014,08,27,05,32,17.70
2014,08,27,05,33,17.70
2014,08,27,05,34,17.70
2014,08,27,05,35,17.70
2014,08,27,05,36,17.70
2014,08,27,05,37,17.60
2014,08,27,05,38,17.60
2014,08,27,05,39,17.60
2014,08,27,05,40,17.60
2014,08,27,05,41,17.60
2014,08,27,05,42,17.60
2014,08,27,05,43,17.60
2014,08,27,05,44,17.60
2014,08,27,05,45,17.50
2014,08,27,05,46,17.50
2014,08,27,05,47,17.50
2014,08,27,05,48,17.40
2014,08,27,05,49,17.40
2014,08,27,05,50,17.40
2014,08,27,05,51,17.40
2014,08,27,05,52,17.40
2014,08,27,05,53,17.40
2014,08,27,05,54,17.40
2014,08,27,05,55,17.40
2014,08,27,05,56,17.30
2014,08,27,05,57,17.30
2014,08,27,05,58,17.30
2014,08,27,05,59,17.30
2014,08,27,06,00,17.30
2014,08,27,06,01,17.30
2014,08,27,06,02,17.20
2014,08,27,06,03,17.20
2014,08,27,06,04,17.20
2014,08,27,06,05,17.20
2014,08,27,06,06,17.20
2014,08,27,06,07,17.20
2014,08,27,06,08,17.20
2014,08,27,06,09,17.20
2014,08,27,06,10,17.20
2014,08,27,06,11,17.20
2014,08,27,06,12,17.10
2014,08,27,06,13,17.10
2014,08,27,06,14,17.10
2014,08,27,06,15,17.10
2014,08,27,06,16,17.10
2014,08,27,06,17,17.10
2014,08,27,06,18,17.10
2014,08,27,06,19,17.10
2014,08,27,06,20,17.10
2014,08,27,06,21,17.10
2014,08,27,06,22,17.10
2014,08,27,06,23,17.10
2014,08,27,06,24,17.10
2014,08,27,06,25,17.10
2014,08,27,06,26,17.10
2014,08,27,06,27,17.00
2014,08,27,06,28,17.00
2014,08,27,06,29,17.00
2014,08,27,06,30,17.00
2014,08,27,06,31,16.90
2014,08,27,06,32,16.90
2014,08,27,06,33,16.90
2014,08,27,06,34,16.90
2014,08,27,06,35,16.90
2014,08,27,06,36,16.90
2014,08,27,06,37,16.90
2014,08,27,06,38,16.90
2014,08,27,06,39,16.90
2014,08,27,06,40,16.90
2014,08,27,06,41,16.90
2014,08,27,06,42,16.90
2014,08,27,06,43,16.90
2014,08,27,06,44,16.90
2014,08,27,06,45,16.90
2014,08,27,06,46,16.90
2014,08,27,06,47,16.90
2014,08,27,06,48,16.90
2014,08,27,06,49,17.00
2014,08,27,06,50,17.00
2014,08,27,06,51,17.00
2014,08,27,06,52,17.00
2014,08,27,06,53,17.10
2014,08,27,06,54,17.10
2014,08,27,06,55,17.10
2014,08,27,06,56,17.10
2014,08,27,06,57,17.10
2014,08,27,06,58,17.10
2014,08,27,06,59,17.20
2014,08,27,07,00,17.20
2014,08,27,07,01,17.20
2014,08,27,07,02,17.30
2014,08,27,07,03,17.30
2014,08,27,07,04,17.30
2014,08,27,07,05,17.40
2014,08,27,07,06,17.50
2014,08,27,07,07,17.60
2014,08,27,07,08,17.60
2014,08,27,07,09,17.70
2014,08,27,07,10,17.70
2014,08,27,07,11,17.80
2014,08,27,07,12,17.80
2014,08,27,07,13,17.80
2014,08,27,07,14,17.90
2014,08,27,07,15,18.00
2014,08,27,07,16,18.10
2014,08,27,07,17,18.20
2014,08,27,07,18,18.30
2014,08,27,07,19,18.30
2014,08,27,07,20,18.40
2014,08,27,07,21,18.50
2014,08,27,07,22,18.60
2014,08,27,07,23,18.70
2014,08,27,07,24,18.70
2014,08,27,07,25,18.80
2014,08,27,07,26,18.80
2014,08,27,07,27,18.80
2014,08,27,07,28,18.80
2014,08,27,07,29,18.70
2014,08,27,07,30,18.70
2014,08,27,07,31,18.60
2014,08,27,07,32,18.60
2014,08,27,07,33,18.50
2014,08,27,07,34,18.50
2014,08,27,07,35,18.40
2014,08,27,07,36,18.40
2014,08,27,07,37,18.40
2014,08,27,07,38,18.30
2014,08,27,07,39,18.30
2014,08,27,07,40,18.30
2014,08,27,07,41,18.40
2014,08,27,07,42,18.40
2014,08,27,07,43,18.40
2014,08,27,07,44,18.50
2014,08,27,07,45,18.60
2014,08,27,07,46,18.60
2014,08,27,07,47,18.70
2014,08,27,07,48,18.80
2014,08,27,07,49,19.00
2014,08,27,07,50,19.10
2014,08,27,07,51,19.20
2014,08,27,07,52,19.30
2014,08,27,07,53,19.40
2014,08,27,07,54,19.50
2014,08,27,07,55,19.60
2014,08,27,07,56,19.70
2014,08,27,07,57,19.80
2014,08,27,07,58,19.90
2014,08,27,07,59,20.00
2014,08,27,08,00,20.10
2014,08,27,08,01,20.20
2014,08,27,08,02,20.20
2014,08,27,08,03,20.30
2014,08,27,08,04,20.30
2014,08,27,08,05,20.40
2014,08,27,08,06,20.40
2014,08,27,08,07,20.50
2014,08,27,08,08,20.60
2014,08,27,08,09,20.60
2014,08,27,08,10,20.60
2014,08,27,08,11,20.60
2014,08,27,08,12,20.60
2014,08,27,08,13,20.60
2014,08,27,08,14,20.70
2014,08,27,08,15,20.70
2014,08,27,08,16,20.70
2014,08,27,08,17,20.80
2014,08,27,08,18,20.80
2014,08,27,08,19,20.90
2014,08,27,08,20,20.90
2014,08,27,08,21,20.90
2014,08,27,08,22,21.00
2014,08,27,08,23,21.00
2014,08,27,08,24,21.10
2014,08,27,08,25,21.10
2014,08,27,08,26,21.20
2014,08,27,08,27,21.30
2014,08,27,08,28,21.30
2014,08,27,08,29,21.40
2014,08,27,08,30,21.50
2014,08,27,08,31,21.60
2014,08,27,08,32,21.60
2014,08,27,08,33,21.70
2014,08,27,08,34,21.80
2014,08,27,08,35,21.80
2014,08,27,08,36,21.80
2014,08,27,08,37,21.90
2014,08,27,08,38,21.90
2014,08,27,08,39,21.90
2014,08,27,08,40,22.00
2014,08,27,08,41,22.00
2014,08,27,08,42,22.10
2014,08,27,08,43,22.10
2014,08,27,08,44,22.20
2014,08,27,08,45,22.20
2014,08,27,08,46,22.10
2014,08,27,08,47,22.10
2014,08,27,08,48,22.10
2014,08,27,08,49,22.10
2014,08,27,08,50,22.10
2014,08,27,08,51,22.10
2014,08,27,08,52,22.10
2014,08,27,08,53,22.00
2014,08,27,08,54,21.90
2014,08,27,08,55,21.90
2014,08,27,08,56,21.80
2014,08,27,08,57,21.80
2014,08,27,08,58,21.80
2014,08,27,08,59,21.80
2014,08,27,09,00,21.70
2014,08,27,09,01,21.70
2014,08,27,09,02,21.60
2014,08,27,09,03,21.70
2014,08,27,09,04,21.60
2014,08,27,09,05,21.60
2014,08,27,09,06,21.60
2014,08,27,09,07,21.60
2014,08,27,09,08,21.60
2014,08,27,09,09,21.60
2014,08,27,09,10,21.70
2014,08,27,09,11,21.70
2014,08,27,09,12,21.80
2014,08,27,09,13,21.70
2014,08,27,09,14,21.70
2014,08,27,09,15,21.70
2014,08,27,09,16,21.70
2014,08,27,09,17,21.80
2014,08,27,09,18,21.80
2014,08,27,09,19,21.80
2014,08,27,09,20,21.80
2014,08,27,09,21,21.80
2014,08,27,09,22,21.80
2014,08,27,09,23,21.80
2014,08,27,09,24,21.90
2014,08,27,09,25,21.90
2014,08,27,09,26,21.90
2014,08,27,09,27,21.90
2014,08,27,09,28,21.90
2014,08,27,09,29,22.00
2014,08,27,09,30,22.00
2014,08,27,09,31,22.00
2014,08,27,09,32,22.10
2014,08,27,09,33,22.10
2014,08,27,09,34,22.10
2014,08,27,09,35,22.10
2014,08,27,09,36,22.20
2014,08,27,09,37,22.20
2014,08,27,09,38,22.30
2014,08,27,09,39,22.30
2014,08,27,09,40,22.40
2014,08,27,09,41,22.40
2014,08,27,09,42,22.40
2014,08,27,09,43,22.40
2014,08,27,09,44,22.50
2014,08,27,09,45,22.60
2014,08,27,09,46,22.70
2014,08,27,09,47,22.70
2014,08,27,09,48,22.80
2014,08,27,09,49,22.80
2014,08,27,09,50,22.80
2014,08,27,09,51,22.80
2014,08,27,09,52,22.80
2014,08,27,09,53,22.80
2014,08,27,09,54,22.80
2014,08,27,09,55,22.80
2014,08,27,09,56,22.80
2014,08,27,09,57,22.90
2014,08,27,09,58,23.00
2014,08,27,09,59,23.10
2014,08,27,10,00,23.10
2014,08,27,10,01,23.00
2014,08,27,10,02,22.90
2014,08,27,10,03,22.80
2014,08,27,10,04,22.70
2014,08,27,10,05,22.70
2014,08,27,10,06,22.60
2014,08,27,10,07,22.60
2014,08,27,10,08,22.60
2014,08,27,10,09,22.60
2014,08,27,10,10,22.50
2014,08,27,10,11,22.40
2014,08,27,10,12,22.30
2014,08,27,10,13,22.20
2014,08,27,10,14,22.10
2014,08,27,10,15,22.00
2014,08,27,10,16,22.00
2014,08,27,10,17,22.10
2014,08,27,10,18,22.10
2014,08,27,10,19,22.00
2014,08,27,10,20,22.00
2014,08,27,10,21,22.10
2014,08,27,10,22,22.20
2014,08,27,10,23,22.30
2014,08,27,10,24,22.30
2014,08,27,10,25,22.40
2014,08,27,10,26,22.40
2014,08,27,10,27,22.50
2014,08,27,10,28,22.50
2014,08,27,10,29,22.50
2014,08,27,10,30,22.60
2014,08,27,10,31,22.60
2014,08,27,10,32,22.50
2014,08,27,10,33,22.50
2014,08,27,10,34,22.50
2014,08,27,10,35,22.50
2014,08,27,10,36,22.60
2014,08,27,10,37,22.60
2014,08,27,10,38,22.80
2014,08,27,10,39,22.80
2014,08,27,10,40,22.80
2014,08,27,10,41,22.80
2014,08,27,10,42,22.80
2014,08,27,10,43,22.70
2014,08,27,10,44,22.70
2014,08,27,10,45,22.70
2014,08,27,10,46,22.70
2014,08,27,10,47,22.60
2014,08,27,10,48,22.60
2014,08,27,10,49,22.60
2014,08,27,10,50,22.70
2014,08,27,10,51,22.80
2014,08,27,10,52,22.90
2014,08,27,10,53,23.00
2014,08,27,10,54,22.90
2014,08,27,10,55,22.90
2014,08,27,10,56,22.80
2014,08,27,10,57,22.80
2014,08,27,10,58,22.80
2014,08,27,10,59,22.80
2014,08,27,11,00,22.80
2014,08,27,11,01,22.80
2014,08,27,11,02,22.80
2014,08,27,11,03,22.80
2014,08,27,11,04,23.00
2014,08,27,11,05,23.10
2014,08,27,11,06,23.20
2014,08,27,11,07,23.20
2014,08,27,11,08,23.20
2014,08,27,11,09,23.30
2014,08,27,11,10,23.40
2014,08,27,11,11,23.50
2014,08,27,11,12,23.60
2014,08,27,11,13,23.60
2014,08,27,11,14,23.60
2014,08,27,11,15,23.70
2014,08,27,11,16,23.80
2014,08,27,11,17,23.90
2014,08,27,11,18,23.90
2014,08,27,11,19,23.90
2014,08,27,11,20,23.90
2014,08,27,11,21,23.80
2014,08,27,11,22,23.80
2014,08,27,11,23,23.80
2014,08,27,11,24,23.80
2014,08,27,11,25,23.70
2014,08,27,11,26,23.70
2014,08,27,11,27,23.70
2014,08,27,11,28,23.80
2014,08,27,11,29,23.80
2014,08,27,11,30,23.90
2014,08,27,11,31,24.00
2014,08,27,11,32,24.00
2014,08,27,11,33,24.00
2014,08,27,11,34,23.90
2014,08,27,11,35,23.80
2014,08,27,11,36,23.80
2014,08,27,11,37,23.80
2014,08,27,11,38,23.80
2014,08,27,11,39,23.90
2014,08,27,11,40,23.90
2014,08,27,11,41,23.90
2014,08,27,11,42,23.90
2014,08,27,11,43,23.80
2014,08,27,11,44,23.80
2014,08,27,11,45,23.80
2014,08,27,11,46,23.80
2014,08,27,11,47,23.80
2014,08,27,11,48,23.70
2014,08,27,11,49,23.70
2014,08,27,11,50,23.80
2014,08,27,11,51,23.80
2014,08,27,11,52,23.80
2014,08,27,11,53,23.80
2014,08,27,11,54,23.80
2014,08,27,11,55,23.90
2014,08,27,11,56,23.90
2014,08,27,11,57,23.90
2014,08,27,11,58,23.80
2014,08,27,11,59,23.70
2014,08,27,12,00,23.70
2014,08,27,12,01,23.70
2014,08,27,12,02,23.70
2014,08,27,12,03,23.70
2014,08,27,12,04,23.70
2014,08,27,12,05,23.70
2014,08,27,12,06,23.80
2014,08,27,12,07,23.80
2014,08,27,12,08,23.90
2014,08,27,12,09,24.00
2014,08,27,12,10,24.10
2014,08,27,12,11,24.20
2014,08,27,12,12,24.20
2014,08,27,12,13,24.20
2014,08,27,12,14,24.10
2014,08,27,12,15,24.10
2014,08,27,12,16,24.10
2014,08,27,12,17,24.00
2014,08,27,12,18,24.00
2014,08,27,12,19,23.90
2014,08,27,12,20,23.80
2014,08,27,12,21,23.80
2014,08,27,12,22,23.80
2014,08,27,12,23,23.90
2014,08,27,12,24,24.00
2014,08,27,12,25,24.10
2014,08,27,12,26,24.10
2014,08,27,12,27,24.10
2014,08,27,12,28,24.10
2014,08,27,12,29,24.10
2014,08,27,12,30,24.00
2014,08,27,12,31,23.90
2014,08,27,12,32,23.90
2014,08,27,12,33,23.80
2014,08,27,12,34,23.90
2014,08,27,12,35,24.00
2014,08,27,12,36,24.10
2014,08,27,12,37,24.10
2014,08,27,12,38,24.10
2014,08,27,12,39,24.30
2014,08,27,12,40,24.30
2014,08,27,12,41,24.40
2014,08,27,12,42,24.40
2014,08,27,12,43,24.50
2014,08,27,12,44,24.60
2014,08,27,12,45,24.70
2014,08,27,12,46,24.80
2014,08,27,12,47,24.90
2014,08,27,12,48,24.90
2014,08,27,12,49,25.10
2014,08,27,12,50,25.10
2014,08,27,12,51,25.00
2014,08,27,12,52,24.90
2014,08,27,12,53,24.80
2014,08,27,12,54,24.70
2014,08,27,12,55,24.60
2014,08,27,12,56,24.70
2014,08,27,12,57,24.70
2014,08,27,12,58,24.80
2014,08,27,12,59,24.80
2014,08,27,13,00,24.80
2014,08,27,13,01,24.70
2014,08,27,13,02,24.60
2014,08,27,13,03,24.60
2014,08,27,13,04,24.60
2014,08,27,13,05,24.60
2014,08,27,13,06,24.50
2014,08,27,13,07,24.50
2014,08,27,13,08,24.60
2014,08,27,13,09,24.70
2014,08,27,13,10,24.80
2014,08,27,13,11,24.80
2014,08,27,13,12,24.90
2014,08,27,13,13,24.90
2014,08,27,13,14,24.80
2014,08,27,13,15,24.80
2014,08,27,13,16,24.80
2014,08,27,13,17,24.80
2014,08,27,13,18,24.80
2014,08,27,13,19,24.90
2014,08,27,13,20,24.80
2014,08,27,13,21,24.80
2014,08,27,13,22,24.90
2014,08,27,13,23,25.00
2014,08,27,13,24,25.00
2014,08,27,13,25,24.90
2014,08,27,13,26,24.80
2014,08,27,13,27,24.70
2014,08,27,13,28,24.70
2014,08,27,13,29,24.80
2014,08,27,13,30,24.80
2014,08,27,13,31,24.80
2014,08,27,13,32,24.90
2014,08,27,13,33,24.90
2014,08,27,13,34,25.00
2014,08,27,13,35,25.10
2014,08,27,13,36,25.10
2014,08,27,13,37,25.10
2014,08,27,13,38,25.10
2014,08,27,13,39,25.10
2014,08,27,13,40,25.10
2014,08,27,13,41,25.10
2014,08,27,13,42,25.10
2014,08,27,13,43,25.10
2014,08,27,13,44,25.10
2014,08,27,13,45,25.00
2014,08,27,13,46,24.90
2014,08,27,13,47,25.00
2014,08,27,13,48,25.00
2014,08,27,13,49,25.00
2014,08,27,13,50,25.10
2014,08,27,13,51,25.10
2014,08,27,13,52,25.00
2014,08,27,13,53,24.90
2014,08,27,13,54,24.80
2014,08,27,13,55,24.70
2014,08,27,13,56,24.70
2014,08,27,13,57,24.60
2014,08,27,13,58,24.60
2014,08,27,13,59,24.60
2014,08,27,14,00,24.60
2014,08,27,14,01,24.60
2014,08,27,14,02,24.60
2014,08,27,14,03,24.60
2014,08,27,14,04,24.60
2014,08,27,14,05,24.60
2014,08,27,14,06,24.60
2014,08,27,14,07,24.50
2014,08,27,14,08,24.50
2014,08,27,14,09,24.40
2014,08,27,14,10,24.30
2014,08,27,14,11,24.30
2014,08,27,14,12,24.30
2014,08,27,14,13,24.30
2014,08,27,14,14,24.30
2014,08,27,14,15,24.30
2014,08,27,14,16,24.40
2014,08,27,14,17,24.40
2014,08,27,14,18,24.40
2014,08,27,14,19,24.40
2014,08,27,14,20,24.40
2014,08,27,14,21,24.40
2014,08,27,14,22,24.30
2014,08,27,14,23,24.20
2014,08,27,14,24,24.20
2014,08,27,14,25,24.10
2014,08,27,14,26,24.10
2014,08,27,14,27,24.10
2014,08,27,14,28,24.10
2014,08,27,14,29,24.10
2014,08,27,14,30,24.10
2014,08,27,14,31,24.10
2014,08,27,14,32,24.10
2014,08,27,14,33,24.10
2014,08,27,14,34,24.10
2014,08,27,14,35,24.20
2014,08,27,14,36,24.30
2014,08,27,14,37,24.50
2014,08,27,14,38,24.50
2014,08,27,14,39,24.70
2014,08,27,14,40,24.80
2014,08,27,14,41,24.80
2014,08,27,14,42,24.70
2014,08,27,14,43,24.70
2014,08,27,14,44,24.80
2014,08,27,14,45,24.90
2014,08,27,14,46,25.00
2014,08,27,14,47,25.00
2014,08,27,14,48,25.10
2014,08,27,14,49,25.10
2014,08,27,14,50,25.00
2014,08,27,14,51,24.90
2014,08,27,14,52,24.90
2014,08,27,14,53,24.90
2014,08,27,14,54,25.00
2014,08,27,14,55,25.10
2014,08,27,14,56,25.20
2014,08,27,14,57,25.30
2014,08,27,14,58,25.20
2014,08,27,14,59,25.00
2014,08,27,15,00,24.90
2014,08,27,15,01,24.90
2014,08,27,15,02,24.90
2014,08,27,15,03,24.90
2014,08,27,15,04,25.00
2014,08,27,15,05,25.10
2014,08,27,15,06,25.10
2014,08,27,15,07,25.10
2014,08,27,15,08,25.20
2014,08,27,15,09,25.20
2014,08,27,15,10,25.10
2014,08,27,15,11,25.00
2014,08,27,15,12,25.00
2014,08,27,15,13,24.90
2014,08,27,15,14,24.90
2014,08,27,15,15,24.90
2014,08,27,15,16,25.00
2014,08,27,15,17,25.00
2014,08,27,15,18,24.90
2014,08,27,15,19,25.00
2014,08,27,15,20,24.90
2014,08,27,15,21,24.90
2014,08,27,15,22,24.90
2014,08,27,15,23,25.00
2014,08,27,15,24,25.10
2014,08,27,15,25,25.20
2014,08,27,15,26,25.30
2014,08,27,15,27,25.50
2014,08,27,15,28,25.50
2014,08,27,15,29,25.50
2014,08,27,15,30,25.40
2014,08,27,15,31,25.30
2014,08,27,15,32,25.40
2014,08,27,15,33,25.40
2014,08,27,15,34,25.60
2014,08,27,15,35,25.70
2014,08,27,15,36,25.60
2014,08,27,15,37,25.50
2014,08,27,15,38,25.50
2014,08,27,15,39,25.50
2014,08,27,15,40,25.60
2014,08,27,15,41,25.70
2014,08,27,15,42,25.90
2014,08,27,15,43,25.90
2014,08,27,15,44,25.90
2014,08,27,15,45,26.00
2014,08,27,15,46,25.90
2014,08,27,15,47,25.90
2014,08,27,15,48,25.90
2014,08,27,15,49,25.90
2014,08,27,15,50,25.80
2014,08,27,15,51,25.60
2014,08,27,15,52,25.50
2014,08,27,15,53,25.50
2014,08,27,15,54,25.50
2014,08,27,15,55,25.40
2014,08,27,15,56,25.40
2014,08,27,15,57,25.30
2014,08,27,15,58,25.20
2014,08,27,15,59,25.20
2014,08,27,16,00,25.30
2014,08,27,16,01,25.40
2014,08,27,16,02,25.40
2014,08,27,16,03,25.40
2014,08,27,16,04,25.30
2014,08,27,16,05,25.30
2014,08,27,16,06,25.30
2014,08,27,16,07,25.20
2014,08,27,16,08,25.30
2014,08,27,16,09,25.30
2014,08,27,16,10,25.30
2014,08,27,16,11,25.20
2014,08,27,16,12,25.30
2014,08,27,16,13,25.30
2014,08,27,16,14,25.40
2014,08,27,16,15,25.50
2014,08,27,16,16,25.60
2014,08,27,16,17,25.60
2014,08,27,16,18,25.60
2014,08,27,16,19,25.60
2014,08,27,16,20,25.70
2014,08,27,16,21,25.90
2014,08,27,16,22,25.90
2014,08,27,16,23,26.00
2014,08,27,16,24,26.10
2014,08,27,16,25,26.20
2014,08,27,16,26,26.30
2014,08,27,16,27,26.30
2014,08,27,16,28,26.30
2014,08,27,16,29,26.40
2014,08,27,16,30,26.40
2014,08,27,16,31,26.40
2014,08,27,16,32,26.40
2014,08,27,16,33,26.30
2014,08,27,16,34,26.30
2014,08,27,16,35,26.20
2014,08,27,16,36,26.10
2014,08,27,16,37,26.20
2014,08,27,16,38,26.30
2014,08,27,16,39,26.30
2014,08,27,16,40,26.40
2014,08,27,16,41,26.40
2014,08,27,16,42,26.20
2014,08,27,16,43,26.10
2014,08,27,16,44,26.00
2014,08,27,16,45,26.10
2014,08,27,16,46,26.00
2014,08,27,16,47,25.90
2014,08,27,16,48,26.00
2014,08,27,16,49,26.00
2014,08,27,16,50,26.10
2014,08,27,16,51,26.00
2014,08,27,16,52,26.00
2014,08,27,16,53,25.90
2014,08,27,16,54,25.90
2014,08,27,16,55,26.00
2014,08,27,16,56,26.10
2014,08,27,16,57,26.10
2014,08,27,16,58,26.10
2014,08,27,16,59,26.10
2014,08,27,17,00,26.00
2014,08,27,17,01,25.90
2014,08,27,17,02,25.90
2014,08,27,17,03,25.80
2014,08,27,17,04,25.80
2014,08,27,17,05,25.80
2014,08,27,17,06,25.80
2014,08,27,17,07,25.80
2014,08,27,17,08,25.80
2014,08,27,17,09,25.80
2014,08,27,17,10,25.90
2014,08,27,17,11,25.90
2014,08,27,17,12,25.90
2014,08,27,17,13,25.80
2014,08,27,17,14,25.80
2014,08,27,17,15,25.70
2014,08,27,17,16,25.70
2014,08,27,17,17,25.70
2014,08,27,17,18,25.70
2014,08,27,17,19,25.70